[[{"header":{"parameterUnit":"m.s-1","parameterCategory":1,"la1":30.2991,"la2":30.254,"lo1":-89.0895,"lo2":-89.0444,"dy":0.0017,"dx":0.0017,"nx":28,"ny":28,"refTime":"2024-03-07T09:00:00:Z","depth":0,"parameterNumber":2,"parameterNumberName":"U-component_of_WINDS"},"data":[0,0,0,0,0,0,0,0,0,0,0,0,0,0,0,0,0,0,0,0,0,0,0,0,0,0,0,0,0,0,0,0,0,0,0,0,0,0,0,0,0,0,0,0,0,0,0,0,0,0,0,0,0,0,0,0,0,0,-0.6253,-0.6254,0,-0.6314,-0.6315,-0.6315,-0.6342,-0.6342,-0.6342,-0.6342,-0.6406,-0.6408,-0.641,0,0,0,0,0,0,0,0,0,0,0,0,0,-0.6162,-0.6164,-0.6253,-0.6254,-0.6255,-0.6314,-0.6315,-0.6315,-0.6342,-0.6342,-0.6342,-0.6342,-0.6406,-0.6408,-0.641,0,0,0,0,0,0,0,0,0,0,0,0,0,-0.621,-0.6164,-0.6253,-0.6275,-0.6278,-0.6314,-0.6315,-0.6316,-0.6342,-0.6342,-0.6342,-0.6342,-0.6405,-0.6408,-0.641,-0.643,0,0,-0.6419,-0.642,0,0,0,0,0,0,0,0,-0.6208,-0.6214,-0.6271,-0.6274,-0.6276,-0.632,-0.6306,-0.6354,-0.6342,-0.6318,-0.6342,-0.6342,-0.6378,-0.6383,-0.6395,-0.6433,-0.6435,-0.6419,-0.6421,-0.6422,-0.6423,0,0,0,0,0,0,0,-0.6204,-0.6211,-0.6277,-0.6272,-0.6275,-0.6283,-0.6289,-0.6315,-0.6348,-0.632,-0.6322,-0.6329,-0.638,-0.6392,-0.6396,-0.6436,-0.6419,-0.6421,-0.6423,-0.6424,-0.6494,-0.6494,0,0,0,0,0,0,-0.6197,-0.6208,-0.6275,-0.6279,-0.6241,-0.6284,-0.6292,-0.6306,-0.6348,-0.6354,-0.6329,-0.633,-0.6388,-0.6393,-0.6399,-0.6424,-0.6422,-0.6424,-0.6426,-0.6493,-0.6494,-0.6494,0,0,0,0,0,0,-0.6195,-0.6203,-0.6273,-0.6244,-0.6254,-0.6286,-0.6302,-0.6308,-0.632,-0.6354,-0.6361,-0.6335,-0.6388,-0.6395,-0.6422,-0.6427,-0.6425,-0.6428,-0.6493,-0.6493,-0.6494,-0.6475,0,0,0,0,0,0,-0.6192,-0.6202,-0.6209,-0.6244,-0.6255,-0.6294,-0.6303,-0.6309,-0.6324,-0.6326,-0.6362,-0.6368,-0.6388,-0.6418,-0.6424,-0.643,-0.643,-0.6493,-0.6493,-0.6494,-0.6475,-0.6474,-0.6474,0,0,0,0,0,-0.6189,-0.6202,-0.6209,-0.6217,-0.6265,-0.6294,-0.63,-0.6323,-0.6325,-0.6333,-0.6355,-0.6367,-0.6425,-0.642,-0.6428,-0.6435,-0.6493,-0.6493,-0.6494,-0.6475,-0.6475,-0.6474,0,0,0,0,0,0,-0.6167,-0.6207,-0.6215,-0.624,-0.6263,-0.6299,-0.6309,-0.6321,-0.6345,-0.6346,-0.6373,-0.6381,-0.6405,-0.6423,-0.6417,-0.6456,-0.646,-0.6462,-0.6443,-0.6443,-0.6442,-0.6438,-0.6432,0,0,0,0,0,-0.6165,-0.6185,-0.6219,-0.6237,-0.6248,-0.6276,-0.629,-0.6305,-0.6331,-0.6341,-0.6365,-0.639,-0.6414,-0.643,-0.6454,-0.6478,-0.6486,-0.6487,-0.6486,-0.6485,-0.6487,-0.6501,-0.6502,-0.6496,-0.6496,-0.6496,0,0,-0.6161,-0.6185,-0.6196,-0.6233,-0.6253,-0.6274,-0.6285,-0.6306,-0.6322,-0.6345,-0.6371,-0.639,-0.642,-0.6445,-0.6458,-0.6461,-0.649,-0.6486,-0.6485,-0.6487,-0.6502,-0.6502,-0.6503,-0.6496,-0.6496,-0.6496,0,0,-0.6164,-0.6184,-0.6202,-0.6221,-0.6251,-0.627,-0.6274,-0.6307,-0.632,-0.6347,-0.6365,-0.6384,-0.6425,-0.6446,-0.6461,-0.6472,-0.6485,-0.648,-0.6476,-0.649,-0.649,-0.6491,-0.6495,-0.6496,-0.6481,-0.6481,-0.6481,0,-0.6156,-0.6187,-0.6209,-0.623,-0.6246,-0.6266,-0.6284,-0.6303,-0.6339,-0.635,-0.6353,-0.6404,-0.6426,-0.6456,-0.6459,-0.6471,-0.6477,-0.6476,-0.6488,-0.6489,-0.649,-0.6494,-0.6496,-0.648,-0.648,-0.648,-0.648,0,-0.6175,-0.6196,-0.6207,-0.624,-0.6258,-0.6277,-0.6303,-0.6318,-0.6331,-0.635,-0.6377,-0.6404,-0.6434,-0.6442,-0.6456,-0.6475,-0.6476,-0.6483,-0.6488,-0.6489,-0.6494,-0.6496,-0.6479,-0.6479,-0.6479,-0.648,0,0,-0.6166,-0.6212,-0.6215,-0.6231,-0.6265,-0.6283,-0.6303,-0.6331,-0.6344,-0.6368,-0.6386,-0.642,-0.6427,-0.6445,-0.6461,-0.6473,-0.648,-0.6479,-0.648,-0.6479,-0.6503,-0.6498,-0.6499,-0.6489,-0.6489,-0.649,-0.6501,0,-0.6174,-0.6211,-0.6231,-0.626,-0.628,-0.63,-0.6318,-0.6341,-0.6359,-0.638,-0.64,-0.6423,-0.6431,-0.6442,-0.6454,-0.6477,-0.6486,-0.6476,-0.6507,-0.6507,-0.6498,-0.6501,-0.6495,-0.6505,-0.6503,-0.6503,-0.6503,0,-0.6188,-0.6212,-0.6241,-0.6273,-0.6283,-0.6298,-0.6326,-0.6345,-0.6372,-0.6385,-0.6404,-0.642,-0.6444,-0.6446,-0.6479,-0.6472,-0.6486,-0.6498,-0.6499,-0.6503,-0.6505,-0.6505,-0.6508,-0.651,-0.6506,-0.6506,-0.6506,0,-0.6179,-0.6218,-0.6241,-0.6254,-0.6291,-0.6302,-0.6318,-0.6345,-0.6361,-0.6386,-0.6396,-0.6423,-0.6438,-0.6459,-0.6482,-0.6482,-0.6513,-0.6517,-0.6524,-0.6523,-0.653,-0.6529,-0.6535,-0.6538,-0.6538,-0.6538,-0.6538,0,-0.6186,-0.6203,-0.6237,-0.6251,-0.6272,-0.6296,-0.6316,-0.6334,-0.6358,-0.6376,-0.6395,-0.6413,-0.6442,-0.6463,-0.6482,-0.6506,-0.6513,-0.6524,-0.6528,-0.6522,-0.6521,-0.6532,-0.6532,-0.6539,-0.6539,-0.6538,-0.6538,0,-0.6179,-0.6202,-0.6228,-0.6262,-0.6271,-0.6284,-0.6313,-0.6328,-0.6347,-0.637,-0.6377,-0.6407,-0.6433,-0.6458,-0.6493,-0.6506,-0.653,-0.6536,-0.652,-0.6523,-0.6528,-0.6527,-0.6542,-0.6545,-0.6546,-0.6546,-0.6546,0,-0.6182,-0.6196,-0.623,-0.6244,-0.6259,-0.6281,-0.6297,-0.6321,-0.6337,-0.6369,-0.638,-0.6407,-0.643,-0.6471,-0.6496,-0.6523,-0.653,-0.6533,-0.6534,-0.6527,-0.653,-0.6529,-0.6531,-0.6533,-0.6532,-0.6532,-0.6532,0,-0.6184,-0.6195,-0.6217,-0.6242,-0.6261,-0.6282,-0.6305,-0.6315,-0.6344,-0.6361,-0.6387,-0.6405,-0.644,-0.6467,-0.6496,-0.6515,-0.6528,-0.6532,-0.6535,-0.6528,-0.6519,-0.6524,-0.6519,-0.6531,-0.6531,-0.6531,-0.6531,-0.6532,-0.6183,-0.6196,-0.6222,-0.6246,-0.6265,-0.6286,-0.6301,-0.6322,-0.6343,-0.6373,-0.6387,-0.6413,-0.6441,-0.6482,-0.65,-0.6521,-0.6525,-0.6529,-0.653,-0.6531,-0.653,-0.6515,-0.6527,-0.6527,-0.6527,-0.6527,-0.6527,0,-0.6186,-0.6204,-0.6226,-0.6256,-0.6275,-0.6285,-0.6311,-0.6326,-0.6348,-0.6372,-0.6394,-0.6424,-0.6451,-0.6478,-0.6506,-0.6518,-0.6525,-0.6524,-0.6524,-0.6528,-0.6525,-0.6519,-0.6518,-0.6518,-0.6518,-0.6518,-0.6518,-0.6518,-0.619,-0.6213,-0.6227,-0.626,-0.6278,-0.6303,-0.6317,-0.6336,-0.6355,-0.6388,-0.6409,-0.6427,-0.6452,-0.6482,-0.6507,-0.6514,-0.6524,-0.6521,-0.6531,-0.6527,-0.6528,-0.6528,-0.6524,-0.6523,-0.6523,-0.6532,-0.6532,-0.6532]},{"header":{"parameterUnit":"m.s-1","parameterCategory":1,"la1":30.2991,"la2":30.254,"lo1":-89.0895,"lo2":-89.0444,"dy":0.0017,"dx":0.0017,"nx":28,"ny":28,"refTime":"2024-03-07T09:00:00:Z","depth":0,"parameterNumber":3,"parameterNumberName":"V-component_of_WINDS"},"data":[0,0,0,0,0,0,0,0,0,0,0,0,0,0,0,0,0,0,0,0,0,0,0,0,0,0,0,0,0,0,0,0,0,0,0,0,0,0,0,0,0,0,0,0,0,0,0,0,0,0,0,0,0,0,0,0,0,0,-2.1224,-2.1224,0,-2.1278,-2.1279,-2.1279,-2.1291,-2.1291,-2.1291,-2.129,-2.1342,-2.1344,-2.1346,0,0,0,0,0,0,0,0,0,0,0,0,0,-2.1126,-2.1128,-2.1223,-2.1224,-2.1225,-2.1278,-2.1279,-2.1279,-2.1292,-2.1291,-2.1291,-2.129,-2.1342,-2.1344,-2.1346,0,0,0,0,0,0,0,0,0,0,0,0,0,-2.1173,-2.1129,-2.1223,-2.1237,-2.1239,-2.1278,-2.1279,-2.128,-2.1292,-2.1291,-2.129,-2.129,-2.1341,-2.1343,-2.1346,-2.1373,0,0,-2.1354,-2.1355,0,0,0,0,0,0,0,0,-2.1171,-2.1177,-2.1235,-2.1236,-2.1239,-2.1277,-2.1264,-2.1311,-2.1292,-2.1272,-2.129,-2.129,-2.1321,-2.1325,-2.1336,-2.1376,-2.1378,-2.1354,-2.1356,-2.1357,-2.1358,0,0,0,0,0,0,0,-2.1167,-2.1175,-2.1245,-2.1235,-2.1238,-2.124,-2.1246,-2.1273,-2.1299,-2.1273,-2.1274,-2.1281,-2.1322,-2.1334,-2.1338,-2.1379,-2.1354,-2.1356,-2.1358,-2.1359,-2.1443,-2.1444,0,0,0,0,0,0,-2.1162,-2.1172,-2.1243,-2.1247,-2.1203,-2.1242,-2.1249,-2.1265,-2.1298,-2.1303,-2.1281,-2.1281,-2.133,-2.1335,-2.134,-2.1374,-2.1357,-2.1359,-2.1361,-2.1443,-2.1443,-2.1444,0,0,0,0,0,0,-2.116,-2.1168,-2.1241,-2.121,-2.1219,-2.1244,-2.1263,-2.1267,-2.1279,-2.1304,-2.1309,-2.1289,-2.1329,-2.1336,-2.1365,-2.1376,-2.1361,-2.1363,-2.1442,-2.1443,-2.1444,-2.1442,0,0,0,0,0,0,-2.1157,-2.1168,-2.1179,-2.121,-2.1221,-2.1267,-2.1264,-2.1268,-2.1284,-2.1284,-2.1313,-2.1317,-2.133,-2.1361,-2.1368,-2.1379,-2.1365,-2.1441,-2.1442,-2.1443,-2.1441,-2.1443,-2.1444,0,0,0,0,0,-2.1154,-2.1175,-2.118,-2.1188,-2.1236,-2.1267,-2.1273,-2.1288,-2.1285,-2.1296,-2.1312,-2.1316,-2.1374,-2.1364,-2.1372,-2.1384,-2.144,-2.1442,-2.1443,-2.144,-2.1442,-2.1444,0,0,0,0,0,0,-2.1143,-2.118,-2.1185,-2.1217,-2.1239,-2.1269,-2.1284,-2.129,-2.1312,-2.1312,-2.1328,-2.1335,-2.1363,-2.1376,-2.1365,-2.1412,-2.1407,-2.141,-2.1402,-2.1404,-2.1405,-2.1401,-2.1367,0,0,0,0,0,-2.1145,-2.1169,-2.1199,-2.1225,-2.1236,-2.1258,-2.1272,-2.1282,-2.1305,-2.1314,-2.1333,-2.1354,-2.1377,-2.1391,-2.1414,-2.1443,-2.1449,-2.1455,-2.1457,-2.1458,-2.146,-2.1476,-2.1479,-2.1449,-2.1449,-2.1449,0,0,-2.1149,-2.1171,-2.1185,-2.1223,-2.1242,-2.1265,-2.1266,-2.129,-2.1307,-2.1317,-2.1346,-2.1361,-2.1385,-2.1415,-2.1429,-2.1427,-2.147,-2.146,-2.146,-2.1462,-2.1478,-2.1481,-2.1484,-2.145,-2.145,-2.145,0,0,-2.1167,-2.1187,-2.1211,-2.1229,-2.1258,-2.1272,-2.1278,-2.1307,-2.1318,-2.1348,-2.1356,-2.1376,-2.1415,-2.1432,-2.1446,-2.1472,-2.1476,-2.1478,-2.1486,-2.1501,-2.1504,-2.1506,-2.1514,-2.1517,-2.1481,-2.1481,-2.1481,0,-2.1167,-2.1204,-2.1221,-2.1246,-2.1262,-2.1274,-2.1298,-2.1315,-2.1348,-2.1359,-2.1356,-2.1406,-2.1424,-2.1457,-2.1464,-2.1475,-2.1481,-2.1475,-2.1502,-2.1505,-2.1507,-2.1515,-2.1518,-2.1481,-2.1481,-2.1481,-2.1481,0,-2.1202,-2.1228,-2.1243,-2.1277,-2.1295,-2.1319,-2.1339,-2.1355,-2.1364,-2.1378,-2.1408,-2.143,-2.1457,-2.1466,-2.1474,-2.1501,-2.1499,-2.1499,-2.1494,-2.151,-2.1518,-2.1521,-2.1481,-2.1481,-2.1481,-2.1481,0,0,-2.1214,-2.1259,-2.1264,-2.1279,-2.1312,-2.1331,-2.1355,-2.1383,-2.1396,-2.1419,-2.1439,-2.1473,-2.1474,-2.1489,-2.15,-2.1514,-2.1532,-2.1513,-2.1513,-2.1515,-2.1562,-2.1561,-2.1564,-2.1536,-2.1536,-2.1537,-2.156,0,-2.1236,-2.1281,-2.1298,-2.1334,-2.1357,-2.137,-2.1391,-2.1412,-2.1427,-2.1448,-2.1463,-2.1486,-2.1486,-2.1496,-2.151,-2.1527,-2.1542,-2.1525,-2.1553,-2.1554,-2.1546,-2.1569,-2.1567,-2.1588,-2.1563,-2.1564,-2.1564,0,-2.1266,-2.1291,-2.133,-2.1361,-2.1371,-2.139,-2.1417,-2.1437,-2.1462,-2.1471,-2.1489,-2.1499,-2.1524,-2.1518,-2.1552,-2.154,-2.1553,-2.1563,-2.1564,-2.1566,-2.1559,-2.1571,-2.1595,-2.1598,-2.1569,-2.1569,-2.1569,0,-2.127,-2.1314,-2.1343,-2.1356,-2.1392,-2.1404,-2.142,-2.1444,-2.146,-2.1483,-2.1493,-2.1519,-2.1532,-2.1551,-2.1567,-2.1562,-2.1599,-2.1595,-2.1607,-2.1606,-2.1613,-2.1612,-2.1639,-2.1623,-2.1623,-2.1623,-2.1622,0,-2.1292,-2.1315,-2.1345,-2.1363,-2.1389,-2.1408,-2.1433,-2.1449,-2.1471,-2.1491,-2.1503,-2.1521,-2.1541,-2.1562,-2.1575,-2.16,-2.1606,-2.1614,-2.1617,-2.1612,-2.1611,-2.162,-2.1619,-2.1623,-2.1623,-2.1623,-2.1623,0,-2.13,-2.1321,-2.1354,-2.1386,-2.1395,-2.1412,-2.1439,-2.1456,-2.1472,-2.1497,-2.1504,-2.1528,-2.1553,-2.1571,-2.1603,-2.1612,-2.1639,-2.1642,-2.1631,-2.1632,-2.1643,-2.1641,-2.1675,-2.1681,-2.1661,-2.1661,-2.1662,0,-2.1312,-2.1331,-2.1365,-2.1381,-2.1396,-2.142,-2.1437,-2.1457,-2.1473,-2.1503,-2.1516,-2.1543,-2.1565,-2.1604,-2.1624,-2.1648,-2.1651,-2.1662,-2.1655,-2.165,-2.1651,-2.1649,-2.1651,-2.1662,-2.1662,-2.1662,-2.1663,0,-2.1331,-2.1341,-2.1365,-2.1393,-2.1413,-2.1436,-2.1459,-2.147,-2.1494,-2.1512,-2.1538,-2.1556,-2.1589,-2.1615,-2.1641,-2.1656,-2.1663,-2.1665,-2.1669,-2.1664,-2.1657,-2.166,-2.1633,-2.1664,-2.1663,-2.1663,-2.1663,-2.1663,-2.1341,-2.1358,-2.1386,-2.1412,-2.1432,-2.1453,-2.1471,-2.1489,-2.1513,-2.1542,-2.1552,-2.158,-2.1604,-2.164,-2.1655,-2.1676,-2.1676,-2.1681,-2.1683,-2.1684,-2.1683,-2.1654,-2.1681,-2.1681,-2.1681,-2.1681,-2.1681,0,-2.136,-2.1379,-2.1403,-2.1435,-2.1456,-2.1463,-2.1489,-2.1505,-2.153,-2.1553,-2.1575,-2.1605,-2.163,-2.1652,-2.1678,-2.169,-2.1694,-2.1696,-2.1695,-2.1698,-2.1682,-2.1676,-2.1693,-2.1693,-2.1693,-2.1693,-2.1693,-2.1693,-2.1372,-2.1401,-2.1415,-2.1453,-2.1471,-2.15,-2.1514,-2.1533,-2.1551,-2.1585,-2.1607,-2.1622,-2.1644,-2.1672,-2.1695,-2.17,-2.1709,-2.171,-2.1716,-2.1701,-2.1699,-2.1698,-2.1692,-2.1712,-2.1712,-2.173,-2.1731,-2.1731]}]]